User: anonymous   Login
Location: Castro Valley
(37.6940°N, 122.0850°W)
Time: 18:21:35
(UTC-08:00)
Language:

PANSAT - Orbit

View from above orbital plane
View from above orbital plane
View from above satellite
View from above satellite

Ground track
Ground track

The orbit data is extracted from the following two-line orbital elements,

1 25520U 98064B   14355.52109779  .00008493  00000-0  32320-3 0  6421
2 25520 028.4593 041.9604 0004400 018.0420 124.8246 15.24901854895248
Epoch (UTC): 21 December 2014 12:30:22
Eccentricity: 0.0004400
inclination: 28.4593°
perigee height: 488 km
apogee height: 494 km
right ascension of ascending node: 41.9604°
argument of perigee: 18.0420°
revolutions per day: 15.24901854
mean anomaly at epoch: 124.8246°
orbit number at epoch: 89524

The dashed part of the orbit path shows where the satellite is in the earth's shadow,  

DLR